sat.trackr.live / text

‹ back to catalog

UNKNOWN

NORAD 83934

UNKNOWN UNKNOWN UNKNOWN

§ Identity

Operator
Country
Launch date
Launch site
Launch vehicle
Mass (kg)
RCS (m²)

External: N2YO · Heavens-Above

§ Orbital elements

Epoch: 2026-09-18T01:19:58.205856Z

Period
1,402.65 min
Inclination
5.1635°
Eccentricity
0.0236355
Mean motion
1.02663162 rev/d
Perigee alt
34,148.2 km
Apogee alt
36,110.3 km
Semi-major
41,507.4 km
B*
0.0000e+0
RAAN
295.8559°
Arg perigee
278.0478°
Mean anomaly
98.5893°
Rev number
4,815

§ Raw data

UNKNOWN1 83934U          26261.05553479 -.00000241  00000+0  00000+0 0  99982 83934   5.1635 295.8559 0236355 278.0478  98.5893  1.02663162 48159

JSON: /api/v1/satellites/83934 · /tle

For live sub-satellite position, see the globe view (requires WebGL).

§ Visibility from observer

Set your observer location to see the next 7 days of passes ≥ 10°. The values pass through the URL so the page stays shareable.

No JS? Fill the form by hand. The geolocation button needs JavaScript.